Regional Weather Roundup
Issued by NWS Sioux Falls, SD

Home | Current Version | Previous Version | Text Only | Print | Product List | Glossary On
Versions: 1 2 3 4 5 6 7 8 9 10 11 12 13 14 15 16 17 18 19 20 21 22 23 24 25 26 27 28 29 30 31 32 33 34 35 36 37 38 39 40 41 42 43 44 45 46 47 48 49 50
351
ASUS43 KFSD 180002
RWRFSD

WEATHER ROUNDUP FOR SE SOUTH DAKOTA/SW MINNESOTA/NW IOWA
NATIONAL WEATHER SERVICE SIOUX FALLS SD
700 PM CDT TUE OCT 17 2017

NOTE: "FAIR" INDICATES FEW OR NO CLOUDS BELOW 12,000 FEET WITH NO
SIGNIFICANT WEATHER AND OR OBSTRUCTIONS TO VISIBILITY.


SDZ038>040-050-052>070-180100-
SOUTHEAST SOUTH DAKOTA

CITY           SKY/WX    TMP DP  RH WIND       PRES   REMARKS
BROOKINGS      CLEAR     66  41  40 S7        29.89F
CHAMBERLAIN    CLEAR     62  41  46 SE8       29.85F
6HR MIN TEMP:  62; 6HR MAX TEMP:  81;

HURON          CLEAR     69  41  36 S10       29.84F
6HR MIN TEMP:  69; 6HR MAX TEMP:  78;

MADISON        FAIR      63  39  42 S8        29.91S
MITCHELL       CLEAR     68  41  37 S8        29.88F
6HR MIN TEMP:  67; 6HR MAX TEMP:  80;

SIOUX FALLS    PTCLDY    65  43  44 S8        29.91F
6HR MIN TEMP:  65; 6HR MAX TEMP:  78;

WINNER         FAIR      70  40  33 S12       29.86F
YANKTON        CLEAR     71  39  31 SE5       29.92S
$$

MNZ071-072-080-081-089-090-097-098-180100-
SOUTHWEST MINNESOTA

CITY           SKY/WX    TMP DP  RH WIND       PRES   REMARKS
FAIRMONT       CLEAR     63  41  44 S8        29.95S
JACKSON        CLEAR     63  36  36 S5        29.96S
MARSHALL       CLEAR     66  39  37 S8        29.89S
6HR MIN TEMP:  66; 6HR MAX TEMP:  77;

MONTEVIDEO     CLEAR     64  37  36 SW5       29.87S
PIPESTONE      CLEAR     63  43  48 S7        29.92S
REDWOOD FALLS  CLEAR     65  40  39 S8        29.89S
TRACY          CLEAR     67  42  41 S6        29.91S
WORTHINGTON    CLEAR     63  40  42 S6        29.95S
$$

IAZ001>003-012>014-020>022-031-032-NEZ013-014-SDZ071-180100-
NORTHWEST IOWA

CITY           SKY/WX    TMP DP  RH WIND       PRES   REMARKS
CHEROKEE       CLEAR     60  46  58 S6        29.97R
DENISON        CLEAR     63  46  55 S5        30.01S
ESTHERVILLE    CLEAR     61  42  49 S7        29.95S
LE MARS        CLEAR     63  46  55 S6        29.95S HAZE
ORANGE CITY    CLEAR     66  43  42 S3        29.96S
SHELDON        CLEAR     54  43  66 S5        29.94S
SIOUX CITY     CLEAR     65  47  52 SE9       29.96S
6HR MIN TEMP:  65; 6HR MAX TEMP:  76;

SPENCER        CLEAR     62  42  47 S6        29.96S
6HR MIN TEMP:  62; 6HR MAX TEMP:  77;

STORM LAKE     CLEAR     57  45  62 S9        29.99R
$$

ABBREVIATIONS USED IN REMARKS
   TC - TEMPERATURE IN CELSIUS
  WCI - WIND CHILL INDEX
   HX - HEAT INDEX
  VSB - VISIBILITY





USA.gov is the U.S. government's official web portal to all federal, state and local government web resources and services.